Zurück zum Katalog

GONETS M 11

M21

AktivKommunikationPO
NORAD 40552·PAYLOAD·🇷🇺 Russia

Gestartet Mar 31, 2015 von Plesetsk Cosmodrome

Loading…

Nächste Überflüge (nächste 24 Stunden)

TLE

AktuellSource: Space-Track

Epoche: Sep 14, 2026, 22:10 UTC

1 40552U 15020A   26257.92414435  .00000087  00000-0  55319-3 0  9999
2 40552  82.4916 335.0853 0016849 163.3811 196.7824 12.42881151519887

Verfolge GONETS M 11 in Echtzeit mit AllMySat

Download on the App Store